sat.trackr.live / text

‹ back to catalog

STARLINK-33655

NORAD 63424 · 2025-065AB

PAYLOAD ACTIVE UNKNOWN

§ Identity

Operator
Country
US
Launch date
2025-03-31
Launch site
AFETR
Launch vehicle
Mass (kg)
RCS (m²)

Purposes: comms

External: N2YO · Heavens-Above · Gunter

§ Orbital elements

Epoch: 2026-05-25T01:11:35.473632Z

Period
94.27 min
Inclination
43.0012°
Eccentricity
0.0001406
Mean motion
15.27585326 rev/d
Perigee alt
482.1 km
Apogee alt
484.0 km
Semi-major
6,861.2 km
B*
8.8009e-4
RAAN
36.1623°
Arg perigee
265.1343°
Mean anomaly
94.9348°
Rev number
6,451

§ Raw data

STARLINK-336551 63424U 25065AB  26145.04971613  .00024039  00000+0  88009-3 0  99912 63424  43.0012  36.1623 0001406 265.1343  94.9348 15.27585326 64514

JSON: /api/v1/satellites/63424 · /tle

For live sub-satellite position, see the globe view (requires WebGL).

§ Visibility from observer

Set your observer location to see the next 7 days of passes ≥ 10°. The values pass through the URL so the page stays shareable.

No JS? Fill the form by hand. The geolocation button needs JavaScript.